Weather Roundup
Issued by NWS

Home | Current Version | Previous Version | Text Only | Print | Product List | Glossary On
Versions: 1 2 3 4 5 6 7 8 9 10 11 12 13 14 15 16 17 18 19 20 21 22 23 24 25 26 27 28 29 30 31 32 33 34 35 36 37 38 39 40 41 42 43 44 45 46 47 48 49 50
000
NZUS93 KARX 220759
HRRWXR

CURRENT HOURLY OBSERVATIONS ACROSS
MUCH OF THE UPPER MISSISSIPPI VALLEY
NATIONAL WEATHER SERVICE LA CROSSE WI
200 AM CST WED NOV 22 2017


...SOUTHEAST MINNESOTA...


CITY           SKY/WX    TMP DP  RH WIND       PRES   REMARKS
ROCHESTER      CLOUDY    14  11  87 NW8       30.31R WCI   3
ROCHESTER/MAYO FAIR      18  12  77 NW8       30.32S WCI   8
WINONA           N/A     21  12  68 N9        30.34S WCI  11
AUSTIN         NOT AVBL
ALBERT LEA     CLOUDY    16  10  79 NW3       30.33F
DODGE CENTER   CLOUDY    16  10  79 NW6       30.32R WCI   7
PRESTON        CLOUDY    15  10  80 NW7       30.31S WCI   6
OWATONNA       CLOUDY    12   9  85 W3        30.34R
FARIBAULT      CLOUDY    16  10  79 W6        30.35R WCI   7
$$

...ELSEWHERE IN MINNESOTA...


CITY           SKY/WX    TMP DP  RH WIND       PRES   REMARKS
MINNEAPOLIS    CLOUDY    16  11  80 W3        30.36R
INTNL FALLS      N/A      5   0  79 SW6       30.24S WCI  -6
DULUTH         CLEAR     13   9  84 NW10      30.24R WCI   0
RED WING       CLOUDY    16   9  73 W3        30.35R
REDWOOD FALLS  CLOUDY    13   7  77 W7        30.36S WCI   3
MANKATO        CLOUDY    15  10  80 NW7       30.36F WCI   5
WORTHINGTON    CLOUDY    10   4  76 W5        30.35S WCI   2
FAIRMONT       CLOUDY    16  10  77 NW8       30.36F WCI   5
$$

...SOUTHWEST WISCONSIN...


CITY           SKY/WX    TMP DP  RH WIND       PRES   REMARKS
LA CROSSE      CLEAR     22  12  65 N10       30.33R WCI  11
PRAIRIE DU CHI CLEAR     22  12  64 NW5       30.32R WCI  16
BOSCOBEL       CLEAR     23  12  62 CALM      30.32R
LONE ROCK      NOT AVBL
PLATTEVILLE    CLEAR     19  14  82 W6        30.28R WCI  11
FORT MC COY    CLEAR     19  12  73 NW5       30.31R WCI  13
CAMP DOUGLAS   CLEAR     16  10  76 NW8       30.29R WCI   5
MAUSTON-NEW LI SUNNY     20  13  73 NW7       30.27R WCI  11
VIROQUA        FAIR      19  15  84 CALM      30.26R
WIS DELLS      CLEAR     20  11  67 NW6       30.27R WCI  13
$$

...ELSEWHERE IN WISCONSIN...


CITY           SKY/WX    TMP DP  RH WIND       PRES   REMARKS
MILWAUKEE      CLEAR     24  13  62 NW8       30.25R WCI  15
MADISON        CLEAR     19  13  77 W5        30.26R WCI  12
GREEN BAY      CLOUDY    23  15  71 W6        30.24R WCI  16
EAU CLAIRE     NOT AVBL
BLACK RVR FLS  FAIR      19  10  67 NW6       30.31R WCI  11
MEDFORD        CLOUDY    16   9  71 N9        30.23R WCI   5
WAUSAU         CLOUDY    19   9  65 N12       30.23R WCI   7
WIS RAPIDS     CLEAR     17  10  74 N9        30.27R WCI   6
MARSHFIELD     CLOUDY    17  10  74 NW6       30.24R WCI   9
RICE LAKE      CLOUDY    14   9  79 W3        30.32S
$$

...NORTHEAST IOWA...


CITY           SKY/WX    TMP DP  RH WIND       PRES   REMARKS
WATERLOO       CLOUDY    19  12  74 NW10      30.36R WCI   7
DUBUQUE        CLEAR     20  12  71 NW7       30.29R WCI  11
DECORAH        CLOUDY    18  12  79 NW6       30.31R WCI   9
MASON CITY     CLOUDY    15  10  80 NW10      30.35R WCI   2
CHARLES CITY   CLOUDY    18  12  79 NW9       30.34R WCI   6
OELWEIN        CLOUDY    18  16  93 NW13      30.34R WCI   4
$$

...ELSEWHERE IN IOWA...


CITY           SKY/WX    TMP DP  RH WIND       PRES   REMARKS
DES MOINES     CLOUDY    21  11  65 NW9       30.40R WCI  11
IOWA CITY      CLOUDY    21  13  71 NW6       30.37R WCI  13
FORT DODGE     CLOUDY    16  10  77 CALM      30.39R
MARSHALLTOWN   CLOUDY    17  13  84 NW9       30.36R WCI   6
CEDAR RAPIDS   CLOUDY    14  11  87 NW6       30.33R WCI   5
$$

...NORTHERN ILLINOIS...


CITY           SKY/WX    TMP DP  RH WIND       PRES   REMARKS
CHICAGO-OHARE  CLEAR     26  14  60 NW10      30.25R WCI  16
CHICAGO-MIDWAY NOT AVBL
MOLINE         CLOUDY    23  14  68 NW8       30.32R WCI  14
ROCKFORD       CLEAR     22  14  71 NW9       30.30R WCI  12
PEORIA         CLEAR     24  16  71 NW5       30.31R WCI  18
$$

NOTE: "FAIR" INDICATES FEW OR NO CLOUDS BELOW 12,000 FEET WITH NO
SIGNIFICANT WEATHER AND/OR OBSTRUCTIONS TO VISIBILITY. WIND
SPEEDS ARE IN MILES-PER-HOUR.




USA.gov is the U.S. government's official web portal to all federal, state and local government web resources and services.